| time (UTC) | temp F | wind direction | speed MPH | gust MPH | rain 1hr in | rain 24hr in | rain mn in | humidity % | barometer mb |
| 20260905191210 | 72 | 32 | 1.0 | 1.0 | 0.00 | 0.00 | 0.00 | 57 | 1014.9 |
| 20260905190709 | 72 | 83 | 3.0 | 3.0 | 0.00 | 0.00 | 0.00 | 59 | 1014.8 |
| 20260905190207 | 72 | 285 | 1.0 | 1.0 | 0.00 | 0.00 | 0.00 | 58 | 1015.0 |
| 20260905185701 | 72 | 291 | 0.0 | 1.0 | 0.00 | 0.00 | 0.00 | 59 | 1014.9 |
| 20260905185155 | 73 | 233 | 1.0 | 1.0 | 0.00 | 0.00 | 0.00 | 59 | 1015.0 |
| 20260905184654 | 71 | 346 | 0.0 | 0.0 | 0.00 | 0.00 | 0.00 | 62 | 1015.1 |
| 20260905184153 | 71 | 12 | 0.0 | 1.0 | 0.00 | 0.00 | 0.00 | 64 | 1015.0 |
| 20260905183648 | 70 | 54 | 1.0 | 1.0 | 0.00 | 0.00 | 0.00 | 63 | 1015.0 |
| 20260905183143 | 71 | 76 | 2.0 | 3.0 | 0.00 | 0.00 | 0.00 | 65 | 1015.1 |
| 20260905182642 | 71 | 295 | 1.0 | 2.0 | 0.00 | 0.00 | 0.00 | 65 | 1015.0 |
| 20260905182137 | 71 | 254 | 2.0 | 2.0 | 0.00 | 0.00 | 0.00 | 66 | 1015.1 |
| 20260905181632 | 69 | 147 | 2.0 | 2.0 | 0.00 | 0.00 | 0.00 | 67 | 1014.9 |
| 20260905181131 | 69 | 10 | 0.0 | 1.0 | 0.00 | 0.00 | 0.00 | 68 | 1015.0 |
| 20260905180626 | 69 | 298 | 2.0 | 2.0 | 0.00 | 0.00 | 0.00 | 69 | 1015.0 |
| 20260905180121 | 68 | 326 | 1.0 | 1.0 | 0.00 | 0.00 | 0.00 | 69 | 1015.0 |
| 20260905175620 | 68 | 291 | 1.0 | 2.0 | 0.00 | 0.00 | 0.00 | 73 | 1014.9 |
| 20260905175116 | 68 | 219 | 1.0 | 2.0 | 0.00 | 0.00 | 0.00 | 71 | 1014.9 |
| 20260905174611 | 68 | 282 | 2.0 | 3.0 | 0.00 | 0.00 | 0.00 | 72 | 1015.1 |
| 20260905174106 | 68 | 306 | 0.0 | 1.0 | 0.00 | 0.00 | 0.00 | 74 | 1015.0 |
| 20260905173603 | 68 | 263 | 1.0 | 2.0 | 0.00 | 0.00 | 0.00 | 72 | 1015.0 |
| 20260905173058 | 68 | 274 | 1.0 | 2.0 | 0.00 | 0.00 | 0.00 | 75 | 1014.9 |
| 20260905172556 | 68 | 298 | 0.0 | 1.0 | 0.00 | 0.00 | 0.00 | 73 | 1014.9 |
| 20260905172052 | 67 | 81 | 1.0 | 1.0 | 0.00 | 0.00 | 0.00 | 74 | 1015.0 |
| 20260905171548 | 66 | 32 | 2.0 | 2.0 | 0.00 | 0.00 | 0.00 | 76 | 1015.1 |
| 20260905171044 | 66 | 65 | 1.0 | 3.0 | 0.00 | 0.00 | 0.00 | 77 | 1015.0 |
| 20260905170541 | 65 | 107 | 1.0 | 2.0 | 0.00 | 0.00 | 0.00 | 77 | 1014.9 |
| 20260905170036 | 64 | 133 | 3.0 | 3.0 | 0.00 | 0.00 | 0.00 | 81 | 1015.0 |
| 20260905165531 | 64 | 14 | 1.0 | 1.0 | 0.00 | 0.00 | 0.00 | 81 | 1014.8 |
| 20260905165025 | 64 | 79 | 4.0 | 5.0 | 0.00 | 0.00 | 0.00 | 79 | 1014.8 |
| 20260905164520 | 63 | 78 | 3.0 | 3.0 | 0.00 | 0.00 | 0.00 | 82 | 1014.6 |
| 20260905164015 | 62 | 99 | 1.0 | 1.0 | 0.00 | 0.00 | 0.00 | 82 | 1014.8 |
| 20260905163511 | 62 | 17 | 1.0 | 1.0 | 0.00 | 0.00 | 0.00 | 82 | 1014.9 |
| 20260905163007 | 62 | 32 | 1.0 | 2.0 | 0.00 | 0.00 | 0.00 | 82 | 1014.9 |
| 20260905162502 | 62 | 18 | 1.0 | 1.0 | 0.00 | 0.00 | 0.00 | 83 | 1014.7 |
| 20260905161957 | 63 | 25 | 0.0 | 1.0 | 0.00 | 0.00 | 0.00 | 80 | 1014.6 |
| 20260905161456 | 64 | 43 | 2.0 | 2.0 | 0.00 | 0.00 | 0.00 | 80 | 1014.7 |
| 20260905160954 | 64 | 31 | 1.0 | 1.0 | 0.00 | 0.00 | 0.00 | 79 | 1014.8 |
| 20260905160448 | 65 | 225 | 1.0 | 1.0 | 0.00 | 0.00 | 0.00 | 79 | 1014.7 |
| 20260905155948 | 66 | 350 | 0.0 | 0.0 | 0.00 | 0.00 | 0.00 | 74 | 1014.8 |
| 20260905155443 | 65 | 298 | 0.0 | 0.0 | 0.00 | 0.00 | 0.00 | 77 | 1014.8 |
| 20260905154941 | 66 | 348 | 0.0 | 0.0 | 0.00 | 0.00 | 0.00 | 75 | 1014.7 |
| 20260905154437 | 64 | 343 | 0.0 | 0.0 | 0.00 | 0.00 | 0.00 | 79 | 1014.6 |
| 20260905153932 | 64 | 338 | 0.0 | 0.0 | 0.00 | 0.00 | 0.00 | 77 | 1014.6 |
| 20260905153428 | 62 | 343 | 0.0 | 0.0 | 0.00 | 0.00 | 0.00 | 82 | 1014.6 |
| 20260905152928 | 62 | 349 | 0.0 | 0.0 | 0.00 | 0.00 | 0.00 | 83 | 1014.6 |
| 20260905152428 | 60 | 349 | 0.0 | 0.0 | 0.00 | 0.00 | 0.00 | 90 | 1014.5 |
| 20260905151923 | 58 | 354 | 0.0 | 0.0 | 0.00 | 0.00 | 0.00 | 99 | 1014.6 |
| 20260905151419 | 56 | 354 | 0.0 | 0.0 | 0.00 | 0.00 | 0.00 | 99 | 1014.4 |
| 20260905150918 | 56 | 351 | 1.0 | 1.0 | 0.00 | 0.00 | 0.00 | 99 | 1014.6 |
| 20260905150413 | 57 | 1 | 1.0 | 2.0 | 0.00 | 0.00 | 0.00 | 99 | 1014.6 |
| 20260905145909 | 56 | 317 | 0.0 | 0.0 | 0.00 | 0.00 | 0.00 | 99 | 1014.4 |
| 20260905145404 | 56 | 277 | 0.0 | 0.0 | 0.00 | 0.00 | 0.00 | 99 | 1014.3 |
| 20260905144904 | 53 | 277 | 0.0 | 0.0 | 0.00 | 0.00 | 0.00 | 99 | 1014.3 |
| 20260905144359 | 52 | 277 | 0.0 | 0.0 | 0.00 | 0.00 | 0.00 | 99 | 1014.4 |
| 20260905143858 | 52 | 275 | 0.0 | 0.0 | 0.00 | 0.00 | 0.00 | 99 | 1014.3 |
| 20260905143352 | 52 | 275 | 0.0 | 0.0 | 0.00 | 0.00 | 0.00 | 99 | 1014.5 |
| 20260905142851 | 51 | 275 | 0.0 | 0.0 | 0.00 | 0.00 | 0.00 | 99 | 1014.4 |
| 20260905142350 | 50 | 275 | 0.0 | 0.0 | 0.00 | 0.00 | 0.00 | 99 | 1014.5 |
| 20260905141846 | 49 | 275 | 0.0 | 0.0 | 0.00 | 0.00 | 0.00 | 99 | 1014.3 |
| 20260905141341 | 49 | 275 | 0.0 | 0.0 | 0.00 | 0.00 | 0.00 | 99 | 1014.2 |
| 20260905140838 | 49 | 275 | 0.0 | 0.0 | 0.00 | 0.00 | 0.00 | 99 | 1014.1 |
| 20260905140338 | 49 | 275 | 0.0 | 0.0 | 0.00 | 0.00 | 0.00 | 99 | 1014.2 |
| 20260905135836 | 49 | 275 | 0.0 | 0.0 | 0.00 | 0.00 | 0.00 | 99 | 1014.1 |
| 20260905135332 | 49 | 275 | 0.0 | 0.0 | 0.00 | 0.00 | 0.00 | 99 | 1014.2 |
| 20260905134827 | 49 | 275 | 0.0 | 0.0 | 0.00 | 0.00 | 0.00 | 99 | 1014.1 |
| 20260905134321 | 49 | 275 | 0.0 | 0.0 | 0.00 | 0.00 | 0.00 | 99 | 1014.1 |
| 20260905133820 | 48 | 275 | 0.0 | 0.0 | 0.00 | 0.00 | 0.00 | 99 | 1014.3 |
| 20260905133316 | 49 | 275 | 0.0 | 0.0 | 0.00 | 0.00 | 0.00 | 99 | 1014.1 |
| 20260905132814 | 49 | 275 | 0.0 | 0.0 | 0.00 | 0.00 | 0.00 | 99 | 1014.0 |
| 20260905132310 | 48 | 275 | 0.0 | 0.0 | 0.00 | 0.00 | 0.00 | 99 | 1014.1 |
| 20260905131805 | 48 | 275 | 0.0 | 0.0 | 0.00 | 0.00 | 0.00 | 99 | 1013.9 |
| 20260905131301 | 48 | 275 | 0.0 | 0.0 | 0.00 | 0.00 | 0.00 | 99 | 1014.0 |
| 20260905130755 | 48 | 275 | 0.0 | 0.0 | 0.00 | 0.00 | 0.00 | 99 | 1014.0 |
| 20260905130254 | 48 | 275 | 0.0 | 0.0 | 0.00 | 0.00 | 0.00 | 99 | 1013.7 |
| 20260905125750 | 48 | 275 | 0.0 | 0.0 | 0.00 | 0.00 | 0.00 | 99 | 1014.0 |
| 20260905125245 | 48 | 275 | 0.0 | 0.0 | 0.00 | 0.00 | 0.00 | 99 | 1014.0 |
| 20260905124742 | 48 | 275 | 0.0 | 0.0 | 0.00 | 0.00 | 0.00 | 99 | 1014.0 |
| 20260905124237 | 48 | 275 | 0.0 | 0.0 | 0.00 | 0.00 | 0.00 | 99 | 1014.1 |
| 20260905123732 | 48 | 275 | 0.0 | 0.0 | 0.00 | 0.00 | 0.00 | 99 | 1013.9 |
| 20260905123229 | 48 | 275 | 0.0 | 0.0 | 0.00 | 0.00 | 0.00 | 99 | 1013.9 |
| 20260905122728 | 48 | 275 | 0.0 | 0.0 | 0.00 | 0.00 | 0.00 | 99 | 1013.8 |
| 20260905122223 | 48 | 275 | 0.0 | 0.0 | 0.00 | 0.00 | 0.00 | 99 | 1013.8 |
| 20260905121718 | 48 | 275 | 0.0 | 0.0 | 0.00 | 0.00 | 0.00 | 99 | 1013.8 |
| 20260905121215 | 48 | 275 | 0.0 | 0.0 | 0.00 | 0.00 | 0.00 | 99 | 1014.2 |
| 20260905120713 | 48 | 275 | 0.0 | 0.0 | 0.00 | 0.00 | 0.00 | 99 | 1013.8 |
| 20260905120207 | 48 | 275 | 0.0 | 0.0 | 0.00 | 0.00 | 0.00 | 99 | 1014.0 |
| 20260905115702 | 48 | 275 | 0.0 | 0.0 | 0.00 | 0.00 | 0.00 | 99 | 1013.9 |
| 20260905115157 | 48 | 275 | 0.0 | 0.0 | 0.00 | 0.00 | 0.00 | 99 | 1014.1 |
| 20260905114657 | 48 | 275 | 0.0 | 0.0 | 0.00 | 0.00 | 0.00 | 99 | 1014.1 |
| 20260905114155 | 48 | 275 | 0.0 | 0.0 | 0.00 | 0.00 | 0.00 | 99 | 1014.0 |
| 20260905113649 | 49 | 275 | 0.0 | 0.0 | 0.00 | 0.00 | 0.00 | 99 | 1014.2 |
| 20260905113145 | 49 | 275 | 0.0 | 0.0 | 0.00 | 0.00 | 0.00 | 99 | 1014.0 |
| 20260905112644 | 49 | 275 | 0.0 | 0.0 | 0.00 | 0.00 | 0.00 | 99 | 1014.0 |
| 20260905112141 | 49 | 275 | 0.0 | 0.0 | 0.00 | 0.00 | 0.00 | 99 | 1014.1 |
| 20260905111640 | 49 | 275 | 0.0 | 0.0 | 0.00 | 0.00 | 0.00 | 99 | 1014.1 |
| 20260905110814 | 50 | 275 | 0.0 | 0.0 | 0.00 | 0.00 | 0.00 | 99 | 1014.1 |
| 20260905110308 | 50 | 275 | 0.0 | 0.0 | 0.00 | 0.00 | 0.00 | 99 | 1014.1 |
| 20260905105804 | 49 | 275 | 0.0 | 0.0 | 0.00 | 0.00 | 0.00 | 99 | 1014.1 |
| 20260905105306 | 49 | 275 | 0.0 | 0.0 | 0.00 | 0.00 | 0.00 | 99 | 1014.1 |
| 20260905104757 | 49 | 275 | 0.0 | 0.0 | 0.00 | 0.00 | 0.00 | 99 | 1014.1 |
| 20260905104254 | 49 | 275 | 0.0 | 0.0 | 0.00 | 0.00 | 0.00 | 99 | 1013.9 |
| 20260905103753 | 49 | 275 | 0.0 | 0.0 | 0.00 | 0.00 | 0.00 | 99 | 1014.2 |
| 20260905103249 | 49 | 275 | 0.0 | 0.0 | 0.00 | 0.00 | 0.00 | 99 | 1014.2 |
| 20260905102744 | 49 | 275 | 0.0 | 0.0 | 0.00 | 0.00 | 0.00 | 99 | 1014.2 |
| 20260905102241 | 49 | 275 | 0.0 | 1.0 | 0.00 | 0.00 | 0.00 | 99 | 1014.1 |
| 20260905101740 | 49 | 274 | 0.0 | 0.0 | 0.00 | 0.00 | 0.00 | 99 | 1014.2 |
| 20260905100212 | 50 | 274 | 0.0 | 0.0 | 0.00 | 0.00 | 0.00 | 99 | 1014.2 |
| 20260905095712 | 50 | 274 | 0.0 | 0.0 | 0.00 | 0.00 | 0.00 | 99 | 1014.2 |
| 20260905095207 | 50 | 274 | 0.0 | 0.0 | 0.00 | 0.00 | 0.00 | 99 | 1014.3 |
| 20260905094706 | 50 | 274 | 0.0 | 0.0 | 0.00 | 0.00 | 0.00 | 99 | 1014.3 |
| 20260905094201 | 50 | 274 | 0.0 | 0.0 | 0.00 | 0.00 | 0.00 | 99 | 1014.2 |
| 20260905093655 | 50 | 274 | 0.0 | 0.0 | 0.00 | 0.00 | 0.00 | 99 | 1014.2 |
| 20260905093152 | 50 | 274 | 0.0 | 0.0 | 0.00 | 0.00 | 0.00 | 99 | 1014.2 |
| 20260905092652 | 50 | 274 | 0.0 | 0.0 | 0.00 | 0.00 | 0.00 | 99 | 1014.3 |
| 20260905092148 | 50 | 274 | 0.0 | 0.0 | 0.00 | 0.00 | 0.00 | 99 | 1014.2 |
| 20260905091642 | 50 | 274 | 0.0 | 0.0 | 0.00 | 0.00 | 0.00 | 99 | 1014.2 |
| 20260905091141 | 50 | 274 | 0.0 | 0.0 | 0.00 | 0.00 | 0.00 | 99 | 1014.5 |
| 20260905090335 | 50 | 274 | 0.0 | 0.0 | 0.00 | 0.00 | 0.00 | 99 | 1014.4 |
| 20260905085834 | 50 | 274 | 0.0 | 0.0 | 0.00 | 0.00 | 0.00 | 99 | 1014.4 |
| 20260905085328 | 51 | 274 | 0.0 | 0.0 | 0.00 | 0.00 | 0.00 | 99 | 1014.5 |
| 20260905084824 | 50 | 274 | 0.0 | 0.0 | 0.00 | 0.00 | 0.00 | 99 | 1014.3 |
| 20260905084323 | 50 | 274 | 0.0 | 0.0 | 0.00 | 0.00 | 0.00 | 99 | 1014.4 |
| 20260905083818 | 50 | 274 | 0.0 | 0.0 | 0.00 | 0.00 | 0.00 | 99 | 1014.6 |
| 20260905083314 | 50 | 274 | 0.0 | 0.0 | 0.00 | 0.00 | 0.00 | 99 | 1014.5 |
| 20260905082809 | 50 | 274 | 0.0 | 0.0 | 0.00 | 0.00 | 0.00 | 99 | 1014.6 |
| 20260905082307 | 50 | 274 | 0.0 | 0.0 | 0.00 | 0.00 | 0.00 | 99 | 1014.6 |
| 20260905081800 | 51 | 274 | 0.0 | 0.0 | 0.00 | 0.00 | 0.00 | 99 | 1014.6 |
| 20260905081255 | 51 | 274 | 0.0 | 0.0 | 0.00 | 0.00 | 0.00 | 99 | 1014.6 |
| 20260905080754 | 51 | 275 | 0.0 | 0.0 | 0.00 | 0.00 | 0.00 | 99 | 1014.6 |
| 20260905080253 | 51 | 275 | 0.0 | 0.0 | 0.00 | 0.00 | 0.00 | 99 | 1014.6 |
| 20260905075532 | 50 | 275 | 0.0 | 0.0 | 0.00 | 0.00 | 0.00 | 99 | 1014.6 |
| 20260905075027 | 50 | 275 | 0.0 | 0.0 | 0.00 | 0.00 | 0.00 | 99 | 1014.6 |
| 20260905074521 | 51 | 274 | 0.0 | 0.0 | 0.00 | 0.00 | 0.00 | 99 | 1014.5 |
| 20260905074017 | 51 | 275 | 0.0 | 0.0 | 0.00 | 0.00 | 0.00 | 99 | 1014.7 |
| 20260905073506 | 51 | 275 | 0.0 | 0.0 | 0.00 | 0.00 | 0.00 | 99 | 1014.7 |
| 20260905073002 | 51 | 275 | 0.0 | 0.0 | 0.00 | 0.00 | 0.00 | 99 | 1014.5 |
| 20260905072502 | 51 | 275 | 0.0 | 0.0 | 0.00 | 0.00 | 0.00 | 99 | 1014.6 |
| 20260905071957 | 51 | 276 | 0.0 | 0.0 | 0.00 | 0.00 | 0.00 | 99 | 1014.6 |
| 20260905071454 | 51 | 276 | 0.0 | 0.0 | 0.00 | 0.00 | 0.00 | 99 | 1014.6 |
| 20260905070953 | 51 | 276 | 0.0 | 0.0 | 0.00 | 0.00 | 0.00 | 99 | 1014.7 |
| 20260905070444 | 51 | 276 | 0.0 | 0.0 | 0.00 | 0.00 | 0.00 | 99 | 1014.7 |
| 20260905065944 | 51 | 276 | 0.0 | 0.0 | 0.00 | 0.01 | 0.01 | 99 | 1014.4 |
| 20260905065441 | 51 | 275 | 0.0 | 0.0 | 0.00 | 0.01 | 0.01 | 99 | 1014.5 |
| 20260905064856 | 51 | 275 | 0.0 | 0.0 | 0.00 | 0.01 | 0.01 | 99 | 1014.4 |
| 20260905064352 | 51 | 275 | 0.0 | 0.0 | 0.00 | 0.01 | 0.01 | 99 | 1014.4 |
| 20260905063850 | 51 | 275 | 0.0 | 0.0 | 0.00 | 0.01 | 0.01 | 99 | 1014.4 |
| 20260905063346 | 52 | 275 | 0.0 | 0.0 | 0.00 | 0.01 | 0.01 | 99 | 1014.4 |
| 20260905062842 | 52 | 275 | 0.0 | 1.0 | 0.00 | 0.01 | 0.01 | 99 | 1014.4 |
| 20260905062337 | 52 | 275 | 0.0 | 0.0 | 0.00 | 0.01 | 0.01 | 99 | 1014.5 |
| 20260905061831 | 52 | 275 | 0.0 | 0.0 | 0.00 | 0.01 | 0.01 | 98 | 1014.4 |
| 20260905061326 | 52 | 277 | 0.0 | 0.0 | 0.00 | 0.01 | 0.01 | 98 | 1014.5 |
| 20260905060820 | 52 | 279 | 0.0 | 0.0 | 0.00 | 0.01 | 0.01 | 98 | 1014.4 |
| 20260905060317 | 52 | 281 | 0.0 | 0.0 | 0.00 | 0.01 | 0.01 | 98 | 1014.5 |
| 20260905055816 | 53 | 281 | 0.0 | 0.0 | 0.00 | 0.01 | 0.01 | 98 | 1014.6 |
| 20260905055310 | 53 | 281 | 0.0 | 0.0 | 0.00 | 0.01 | 0.01 | 98 | 1014.6 |
| 20260905054805 | 53 | 282 | 0.0 | 0.0 | 0.00 | 0.01 | 0.01 | 98 | 1014.6 |
| 20260905054302 | 53 | 282 | 0.0 | 0.0 | 0.00 | 0.01 | 0.01 | 97 | 1014.6 |
| 20260905053801 | 53 | 282 | 0.0 | 0.0 | 0.00 | 0.01 | 0.01 | 97 | 1014.6 |
| 20260905053256 | 53 | 293 | 0.0 | 0.0 | 0.00 | 0.01 | 0.01 | 97 | 1014.5 |
| 20260905052756 | 53 | 294 | 0.0 | 0.0 | 0.00 | 0.01 | 0.01 | 97 | 1014.8 |
| 20260905052250 | 53 | 287 | 0.0 | 0.0 | 0.00 | 0.01 | 0.01 | 96 | 1014.5 |
| 20260905051750 | 53 | 276 | 0.0 | 0.0 | 0.00 | 0.01 | 0.01 | 96 | 1014.8 |
| 20260905051247 | 53 | 287 | 0.0 | 0.0 | 0.00 | 0.01 | 0.01 | 95 | 1014.7 |
| 20260905050743 | 54 | 291 | 0.0 | 0.0 | 0.00 | 0.01 | 0.01 | 95 | 1014.7 |
| 20260905050239 | 55 | 287 | 0.0 | 0.0 | 0.00 | 0.01 | 0.01 | 94 | 1015.0 |
| 20260905045739 | 55 | 302 | 0.0 | 0.0 | 0.00 | 0.01 | 0.01 | 94 | 1014.9 |
| 20260905045235 | 55 | 303 | 0.0 | 0.0 | 0.00 | 0.01 | 0.01 | 93 | 1014.9 |
| 20260905044730 | 56 | 298 | 0.0 | 0.0 | 0.00 | 0.01 | 0.01 | 92 | 1014.7 |
| 20260905044225 | 56 | 298 | 0.0 | 0.0 | 0.00 | 0.01 | 0.01 | 92 | 1014.7 |
| 20260905043724 | 56 | 277 | 1.0 | 1.0 | 0.00 | 0.01 | 0.01 | 92 | 1014.4 |
| 20260905043219 | 56 | 277 | 1.0 | 1.0 | 0.00 | 0.01 | 0.01 | 92 | 1014.4 |
| 20260905042719 | 56 | 317 | 0.0 | 0.0 | 0.00 | 0.01 | 0.01 | 91 | 1014.5 |
| 20260905042218 | 56 | 308 | 0.0 | 1.0 | 0.00 | 0.01 | 0.01 | 91 | 1014.4 |
| 20260905041714 | 56 | 305 | 1.0 | 1.0 | 0.00 | 0.01 | 0.01 | 92 | 1014.6 |
| 20260905041209 | 56 | 297 | 0.0 | 0.0 | 0.00 | 0.01 | 0.01 | 92 | 1014.5 |
| 20260905040704 | 56 | 297 | 0.0 | 0.0 | 0.00 | 0.01 | 0.01 | 92 | 1014.5 |
| 20260905040202 | 56 | 323 | 0.0 | 0.0 | 0.00 | 0.01 | 0.01 | 91 | 1014.3 |
| 20260905035657 | 56 | 323 | 0.0 | 0.0 | 0.00 | 0.01 | 0.01 | 91 | 1014.3 |
| 20260905035154 | 56 | 294 | 0.0 | 0.0 | 0.00 | 0.01 | 0.01 | 91 | 1014.2 |
| 20260905034650 | 57 | 276 | 1.0 | 1.0 | 0.00 | 0.01 | 0.01 | 91 | 1014.2 |
| 20260905034149 | 57 | 299 | 0.0 | 0.0 | 0.00 | 0.01 | 0.01 | 90 | 1014.3 |
| 20260905033648 | 57 | 309 | 1.0 | 1.0 | 0.00 | 0.01 | 0.01 | 90 | 1014.1 |
| 20260905033144 | 57 | 303 | 0.0 | 1.0 | 0.00 | 0.01 | 0.01 | 89 | 1014.1 |
| 20260905032643 | 57 | 303 | 0.0 | 1.0 | 0.00 | 0.01 | 0.01 | 89 | 1014.1 |
| 20260905031837 | 57 | 306 | 1.0 | 1.0 | 0.00 | 0.01 | 0.01 | 88 | 1014.1 |
| 20260905031333 | 57 | 306 | 1.0 | 1.0 | 0.00 | 0.01 | 0.01 | 88 | 1014.1 |
| 20260905030828 | 57 | 245 | 3.0 | 3.0 | 0.00 | 0.01 | 0.01 | 88 | 1014.1 |
| 20260905030324 | 57 | 292 | 2.0 | 2.0 | 0.00 | 0.01 | 0.01 | 88 | 1014.0 |
| 20260905025823 | 58 | 307 | 2.0 | 2.0 | 0.00 | 0.01 | 0.01 | 87 | 1013.8 |
| 20260905025318 | 58 | 254 | 1.0 | 2.0 | 0.00 | 0.01 | 0.01 | 87 | 1013.8 |
| 20260905024815 | 58 | 306 | 1.0 | 2.0 | 0.00 | 0.01 | 0.01 | 85 | 1014.0 |
| 20260905024310 | 58 | 225 | 2.0 | 3.0 | 0.00 | 0.01 | 0.01 | 85 | 1013.9 |
| 20260905023805 | 59 | 308 | 0.0 | 1.0 | 0.00 | 0.01 | 0.01 | 84 | 1013.9 |
| 20260905023300 | 59 | 250 | 2.0 | 2.0 | 0.00 | 0.01 | 0.01 | 84 | 1013.9 |
| 20260905022759 | 59 | 255 | 1.0 | 1.0 | 0.00 | 0.01 | 0.01 | 84 | 1013.9 |
| 20260905022254 | 59 | 297 | 0.0 | 0.0 | 0.00 | 0.01 | 0.01 | 83 | 1014.1 |
| 20260905021749 | 60 | 294 | 3.0 | 5.0 | 0.00 | 0.01 | 0.01 | 83 | 1013.9 |
| 20260905021244 | 60 | 279 | 0.0 | 1.0 | 0.00 | 0.01 | 0.01 | 82 | 1014.0 |
| 20260905020744 | 60 | 312 | 1.0 | 1.0 | 0.00 | 0.01 | 0.01 | 81 | 1013.9 |
| 20260905020239 | 61 | 308 | 1.0 | 2.0 | 0.00 | 0.01 | 0.01 | 81 | 1013.9 |
| 20260905015738 | 61 | 297 | 1.0 | 1.0 | 0.00 | 0.01 | 0.01 | 80 | 1014.0 |
| 20260905015233 | 61 | 264 | 2.0 | 3.0 | 0.00 | 0.01 | 0.01 | 79 | 1013.8 |
| 20260905014731 | 62 | 297 | 2.0 | 3.0 | 0.00 | 0.01 | 0.01 | 77 | 1013.9 |
| 20260905014227 | 62 | 292 | 1.0 | 1.0 | 0.00 | 0.01 | 0.01 | 76 | 1014.0 |
| 20260905013723 | 62 | 333 | 1.0 | 1.0 | 0.00 | 0.01 | 0.01 | 76 | 1013.9 |
| 20260905013219 | 62 | 244 | 3.0 | 5.0 | 0.00 | 0.01 | 0.01 | 75 | 1013.9 |
| 20260905012714 | 62 | 238 | 1.0 | 2.0 | 0.00 | 0.01 | 0.01 | 75 | 1013.9 |
| 20260905012210 | 62 | 310 | 0.0 | 1.0 | 0.00 | 0.01 | 0.01 | 74 | 1013.9 |
| 20260905011706 | 62 | 273 | 2.0 | 6.0 | 0.00 | 0.01 | 0.01 | 75 | 1014.1 |
| 20260905011202 | 62 | 295 | 2.0 | 2.0 | 0.00 | 0.01 | 0.01 | 75 | 1014.1 |
| 20260905010701 | 63 | 301 | 4.0 | 6.0 | 0.00 | 0.01 | 0.01 | 75 | 1013.9 |
| 20260905010157 | 63 | 235 | 2.0 | 5.0 | 0.00 | 0.01 | 0.01 | 73 | 1013.9 |
| 20260905005654 | 63 | 206 | 1.0 | 2.0 | 0.00 | 0.01 | 0.01 | 73 | 1014.0 |
| 20260905005149 | 64 | 315 | 1.0 | 1.0 | 0.00 | 0.01 | 0.01 | 72 | 1014.0 |
| 20260905004643 | 64 | 310 | 1.0 | 1.0 | 0.00 | 0.01 | 0.01 | 72 | 1014.1 |
| 20260905004138 | 65 | 275 | 1.0 | 1.0 | 0.00 | 0.01 | 0.01 | 72 | 1013.8 |
| 20260905003634 | 65 | 275 | 1.0 | 1.0 | 0.00 | 0.01 | 0.01 | 72 | 1013.8 |
| 20260905003130 | 66 | 316 | 1.0 | 2.0 | 0.00 | 0.01 | 0.01 | 71 | 1013.8 |
| 20260905002625 | 66 | 299 | 3.0 | 3.0 | 0.00 | 0.01 | 0.01 | 69 | 1013.9 |
| 20260905002119 | 66 | 294 | 1.0 | 1.0 | 0.00 | 0.01 | 0.01 | 69 | 1013.9 |
| 20260905001614 | 66 | 304 | 3.0 | 3.0 | 0.00 | 0.01 | 0.01 | 68 | 1013.8 |
| 20260905001109 | 66 | 304 | 3.0 | 3.0 | 0.00 | 0.01 | 0.01 | 68 | 1013.8 |
| 20260905000604 | 67 | 281 | 4.0 | 5.0 | 0.00 | 0.01 | 0.01 | 66 | 1013.9 |
| 20260905000100 | 67 | 235 | 2.0 | 2.0 | 0.00 | 0.01 | 0.01 | 68 | 1013.8 |
| 20260904235600 | 67 | 235 | 2.0 | 2.0 | 0.00 | 0.01 | 0.01 | 68 | 1013.8 |
| 20260904235059 | 67 | 210 | 5.0 | 6.0 | 0.00 | 0.01 | 0.01 | 66 | 1014.2 |
| 20260904234554 | 67 | 248 | 4.0 | 6.0 | 0.00 | 0.01 | 0.01 | 64 | 1014.0 |
| 20260904234050 | 68 | 291 | 1.0 | 2.0 | 0.00 | 0.01 | 0.01 | 62 | 1014.1 |
| 20260904233545 | 68 | 5 | 2.0 | 2.0 | 0.00 | 0.01 | 0.01 | 64 | 1014.0 |
| 20260904233041 | 68 | 271 | 2.0 | 3.0 | 0.00 | 0.01 | 0.01 | 61 | 1013.9 |
| 20260904232538 | 69 | 312 | 5.0 | 7.0 | 0.00 | 0.01 | 0.01 | 61 | 1014.1 |
| 20260904232034 | 68 | 266 | 0.0 | 1.0 | 0.00 | 0.01 | 0.01 | 63 | 1014.1 |
| 20260904231529 | 69 | 244 | 0.0 | 2.0 | 0.00 | 0.01 | 0.01 | 60 | 1014.0 |
| 20260904231024 | 68 | 326 | 1.0 | 1.0 | 0.00 | 0.01 | 0.01 | 63 | 1014.0 |
| 20260904230523 | 69 | 306 | 1.0 | 1.0 | 0.00 | 0.01 | 0.01 | 61 | 1013.8 |
| 20260904230019 | 69 | 306 | 1.0 | 1.0 | 0.00 | 0.01 | 0.01 | 61 | 1013.8 |
| 20260904225517 | 69 | 266 | 3.0 | 3.0 | 0.00 | 0.01 | 0.01 | 60 | 1014.0 |
| 20260904225016 | 69 | 266 | 3.0 | 3.0 | 0.00 | 0.01 | 0.01 | 60 | 1014.0 |
| 20260904224511 | 70 | 300 | 3.0 | 5.0 | 0.00 | 0.01 | 0.01 | 58 | 1014.1 |
| 20260904224011 | 70 | 309 | 3.0 | 3.0 | 0.00 | 0.01 | 0.01 | 60 | 1014.3 |
| 20260904223510 | 70 | 296 | 1.0 | 1.0 | 0.00 | 0.01 | 0.01 | 59 | 1014.0 |
| 20260904223007 | 70 | 296 | 1.0 | 1.0 | 0.00 | 0.01 | 0.01 | 59 | 1014.0 |
| 20260904222501 | 71 | 289 | 3.0 | 5.0 | 0.00 | 0.01 | 0.01 | 58 | 1014.1 |
| 20260904221956 | 71 | 264 | 3.0 | 3.0 | 0.00 | 0.01 | 0.01 | 57 | 1014.2 |
| 20260904221451 | 70 | 228 | 2.0 | 3.0 | 0.00 | 0.01 | 0.01 | 59 | 1014.3 |
| 20260904220946 | 71 | 288 | 4.0 | 6.0 | 0.00 | 0.01 | 0.01 | 57 | 1014.1 |
| 20260904220445 | 71 | 303 | 2.0 | 2.0 | 0.00 | 0.01 | 0.01 | 58 | 1014.4 |
| 20260904215941 | 71 | 327 | 1.0 | 2.0 | 0.00 | 0.01 | 0.01 | 60 | 1014.4 |
| 20260904215436 | 70 | 273 | 3.0 | 5.0 | 0.00 | 0.01 | 0.01 | 59 | 1014.3 |
| 20260904214932 | 70 | 306 | 2.0 | 3.0 | 0.00 | 0.01 | 0.01 | 58 | 1014.3 |
| 20260904214427 | 70 | 253 | 3.0 | 3.0 | 0.00 | 0.01 | 0.01 | 60 | 1014.4 |
| 20260904213926 | 71 | 272 | 2.0 | 2.0 | 0.00 | 0.01 | 0.01 | 59 | 1014.3 |
| 20260904213415 | 70 | 326 | 4.0 | 5.0 | 0.00 | 0.01 | 0.01 | 60 | 1014.3 |
| 20260904212911 | 70 | 260 | 4.0 | 6.0 | 0.00 | 0.01 | 0.01 | 60 | 1014.2 |
| 20260904212410 | 70 | 249 | 2.0 | 3.0 | 0.00 | 0.01 | 0.01 | 59 | 1014.4 |
| 20260904211906 | 71 | 226 | 3.0 | 5.0 | 0.00 | 0.01 | 0.01 | 58 | 1014.2 |
| 20260904211401 | 71 | 264 | 2.0 | 2.0 | 0.00 | 0.01 | 0.01 | 59 | 1014.3 |
| 20260904210856 | 70 | 295 | 1.0 | 1.0 | 0.00 | 0.01 | 0.01 | 62 | 1014.5 |
| 20260904210355 | 70 | 295 | 4.0 | 6.0 | 0.00 | 0.01 | 0.01 | 59 | 1014.2 |
| 20260904205852 | 70 | 168 | 3.0 | 5.0 | 0.00 | 0.01 | 0.01 | 59 | 1014.4 |
| 20260904205347 | 70 | 168 | 3.0 | 5.0 | 0.00 | 0.01 | 0.01 | 59 | 1014.4 |
| 20260904204844 | 69 | 350 | 2.0 | 3.0 | 0.00 | 0.01 | 0.01 | 60 | 1014.3 |
| 20260904204340 | 71 | 203 | 4.0 | 7.0 | 0.00 | 0.01 | 0.01 | 59 | 1014.3 |
| 20260904203836 | 70 | 254 | 2.0 | 6.0 | 0.00 | 0.01 | 0.01 | 61 | 1014.3 |
| 20260904203332 | 70 | 314 | 1.0 | 1.0 | 0.00 | 0.01 | 0.01 | 60 | 1014.1 |
| 20260904202827 | 71 | 282 | 4.0 | 5.0 | 0.00 | 0.01 | 0.01 | 59 | 1014.3 |
| 20260904202323 | 70 | 308 | 3.0 | 5.0 | 0.00 | 0.01 | 0.01 | 59 | 1014.3 |
| 20260904201819 | 70 | 293 | 3.0 | 5.0 | 0.00 | 0.01 | 0.01 | 59 | 1014.1 |
| 20260904201319 | 68 | 217 | 3.0 | 5.0 | 0.00 | 0.01 | 0.01 | 65 | 1014.1 |
| 20260904200814 | 68 | 309 | 1.0 | 1.0 | 0.00 | 0.01 | 0.01 | 66 | 1014.1 |
| 20260904200313 | 68 | 317 | 0.0 | 0.0 | 0.00 | 0.01 | 0.01 | 67 | 1013.9 |
| 20260904195808 | 68 | 113 | 3.0 | 3.0 | 0.00 | 0.01 | 0.01 | 66 | 1014.0 |
| 20260904195306 | 67 | 59 | 4.0 | 7.0 | 0.00 | 0.01 | 0.01 | 69 | 1014.2 |
| 20260904194801 | 68 | 309 | 1.0 | 2.0 | 0.00 | 0.01 | 0.01 | 67 | 1014.3 |
| 20260904194300 | 68 | 126 | 3.0 | 5.0 | 0.00 | 0.01 | 0.01 | 70 | 1014.3 |
| 20260904193755 | 68 | 48 | 1.0 | 2.0 | 0.00 | 0.01 | 0.01 | 68 | 1014.1 |
| 20260904193251 | 67 | 273 | 1.0 | 1.0 | 0.00 | 0.01 | 0.01 | 68 | 1014.2 |
| 20260904192746 | 68 | 205 | 1.0 | 2.0 | 0.00 | 0.01 | 0.01 | 69 | 1014.3 |
| 20260904192241 | 68 | 224 | 2.0 | 2.0 | 0.00 | 0.01 | 0.01 | 69 | 1014.3 |
| 20260904191738 | 68 | 313 | 0.0 | 0.0 | 0.00 | 0.01 | 0.01 | 69 | 1014.4 |